SCP
0 0 0 0 0 0 0 0 0 0 0 0 0 0 0 0 0 0 0 0 0 0 0 0 0 0 0 0 0 0 0 0 0 0 0 0 0 0 0 0 0 0 0
0 0 0 0 0 0 0 0 0 0 0 0 0 0 0 0 0 0 0 0 0 0 0 0 0 0 0 0 0 0 0 0 0 0 0 0 0 0 0 0 0 0 0
0 0 0 0 0 0 0 0 0 0 0 0 0 0 0 0 0 0 0 0 0 0 0 0 0 0 0 0 0 0 0 0 0 0 0 0 0 0 0 0 0 0 0
0 0 0 0 0 0 0 0 0 0 0 0 0 0 0 0 0 0 0 0 0 0 0 0 0 0 0 0 0 0 0 0 0 0 0 0 0 0 0 0 0 0 0
0 0 0 0 0 0 0 0 0 0 0 0 0 0 0 0 0 0 0 0 0 0 0 0 0 0 0 0 0 0 0 0 0 0 0 0 0 0 0 0 0 0 0
0 0 0 0 0 0 0 0 0 0 0 0 0 0 0 0 0 0 0 0 0 0 0 0 0 0 0 -0 -0 0 -0 0 0 0 0 0 0 0 0 0 0 0 0
0 0 0 0 0 0 0 0 0 0 0 0 0 0 0 0 0 0 0 0 0 0 0 0 0 0 0 0 -0 -0 -0 0 0 0 0 0 0 0 0 0 0 0 0
0 0 0 0 0 0 0 0 0 0 0 0 0 0 0 0 0 0 0 0 0 0 0 0 0 0 0 0 -0 -0 0 0 0 0 0 0 0 0 0 0 0 0 0
0 0 0 0 0 0 0 0 0 0 0 0 0 0 0 0 0 0 0 0 0 0 0 0 0 0 0 0 -0 -0 0 0 0 0 0 0 0 0 0 0 0 0 0
0 0 0 0 0 0 0 0 0 0 0 0 0 0 0 0 0 0 0 0 0 0 0 0 0 0 0 0 -0 -0 -0 -0 -0 0 0 0 -0 0 0 0 0 0 0
0 0 0 0 0 0 0 0 0 0 0 0 0 0 0 0 0 0 0 0 0 0 0 0 0 0 0 0 -0 0 0 0 0 0 0 0 0 0 0 0 0 0 0
0 0 0 0 0 0 0 0 0 0 0 0 0 0 0 0 0 0 0 0 -0 0 0 0 0 0 0 0 -0 -0 -0 -0 -0 0 0 0 0 0 0 0 0 0 0
0 0 0 0 0 0 0 0 0 0 0 0 0 0 0 0 0 0 0 0 -0 0 0 0 0 0 -0 -0 -0 0 0 0 0 0 0 0 0 0 0 0 0 0 0
0 0 0 0 0 0 0 0 0 0 0 0 0 0 0 0 0 0 0 0 -0 0 -0 0 0 0 0 0 0 -0 0 0 0 0 0 0 0 0 0 0 0 0 0
0 0 0 0 0 0 0 0 0 0 0 0 0 0 0 0 0 0 0 0 0 -0 0 -0 0 0 0 0 0 0 0 0 0 0 0 0 0 0 0 0 0 0 0
0 0 0 0 0 0 0 0 0 0 0 0 0 0 0 0 0 0 0 0 0 0 0 0 -0 0 0 0 0 0 -0 0 0 0 0 0 0 0 0 0 0 0 0
0 0 0 0 0 0 0 0 0 0 0 0 0 0 0 0 0 0 0 0 0 0 0 0 0 -0 -0 0 0 0 0 0 0 0 0 0 0 0 0 0 0 0 0
0 0 0 0 0 0 0 0 0 0 0 0 0 0 0 0 0 0 0 0 0 0 0 0 0 0 -0 -0 -0 -0 0 0 0 0 0 0 0 0 0 0 0 0 0
0 0 0 0 0 0 0 0 0 0 0 0 0 0 0 0 0 0 0 0 0 0 0 0 -0 -0 -0 -0 -0 -0 -0 -0 0 0 0 0 0 0 0 0 0 0 0
0 0 0 0 0 0 0 0 0 0 0 0 0 0 0 0 0 0 0 0 0 0 0 0 0 -0 -0 -0 -0 -0 -0 -0 -0 -0 0 0 0 0 0 0 0 -0 -0
0 0 0 0 0 0 0 0 0 0 0 0 0 0 0 0 0 0 0 0 0 0 0 0 0 0 -0 -0 -0 -0 -0 -0 -0 0 0 0 0 0 -0 -0 -0 -0 -0
0 0 0 0 0 0 0 0 0 0 0 0 0 0 0 0 0 0 0 0 0 0 0 0 0 0 0 0 -0 -0 -0 -0 0 0 0 0 0 0 0 0 0 0 0
0 0 0 0 0 0 0 0 0 0 0 0 0 0 0 0 0 0 0 0 0 0 0 0 0 0 0 0 0 0 0 -0 -0 0 0 0 0 0 0 0 0 0 0
0 0 0 0 0 0 0 0 0 0 0 0 0 0 0 0 0 0 0 0 0 0 0 0 0 0 0 0 0 0 0 0 0 0 0 0 0 0 0 0 0 0 0
0 0 0 0 0 0 0 0 0 0 0 0 0 0 0 0 0 0 0 0 0 0 0 0 0 0 0 0 0 0 0 0 0 0 0 0 0 0 0 0 0 0 0
0 0 0 0 0 0 0 0 0 0 0 0 0 0 0 0 0 0 0 0 0 0 0 0 0 0 0 0 0 0 0 0 0 0 0 0 0 0 0 0 0 0 0
Wind_Speed_500mb
50 46 38 36 36 37 38 39 41 41 40 41 46 53 59 67 77 85 90 86 82 87 85 88 88 87 85 86 82 82 98 75 85 87 50 52 68 66 59 48 41 35 55
50 43 36 35 33 33 33 35 37 37 35 38 46 53 64 76 85 90 90 82 83 88 94 90 92 87 84 79 81 76 79 85 68 58 92 54 56 53 55 70 63 53 46
47 37 34 31 31 30 29 30 32 31 30 36 46 60 71 80 87 95 91 94 92 92 95 91 84 77 76 70 71 70 74 70 65 55 67 60 40 45 43 42 45 55 54
40 36 30 28 28 28 26 27 28 25 29 37 50 62 71 78 86 94 96 95 96 90 80 76 75 68 68 61 57 59 61 62 56 61 51 25 19 31 42 48 38 47 52
38 33 27 27 26 26 24 25 23 22 31 39 52 62 68 75 85 92 89 95 81 80 82 85 78 60 56 49 42 43 49 52 41 51 37 39 41 33 29 34 30 33 36
35 30 27 26 24 24 23 23 19 21 29 40 50 59 67 73 83 90 82 78 71 71 80 80 60 41 39 30 36 41 37 28 32 32 34 25 23 33 36 35 36 38 31
33 30 27 25 24 22 22 20 16 20 28 39 47 58 65 71 80 89 81 66 64 64 69 74 58 28 15 17 21 29 34 32 12 17 20 24 27 32 29 38 44 50 62
33 32 29 26 24 22 22 20 15 18 26 37 45 53 62 69 76 85 80 61 61 56 58 61 59 38 18 6 13 19 28 13 6 16 17 26 33 30 31 50 56 80 80
33 32 29 27 25 24 23 21 18 17 24 33 40 47 57 66 74 79 77 70 58 56 49 51 49 46 28 12 5 17 16 9 12 6 16 19 23 32 40 61 83 99 86
30 30 30 28 27 26 24 23 20 19 20 29 33 41 52 61 68 74 76 72 60 53 50 43 43 38 39 22 7 7 6 5 10 14 7 12 17 37 53 62 87 94 106
31 35 34 30 28 28 27 25 22 20 17 22 28 33 44 56 62 67 73 68 65 54 48 46 40 27 20 19 9 3 5 12 10 13 28 37 46 52 54 72 82 90 86
38 39 36 33 32 32 31 27 24 22 18 17 24 26 35 46 56 60 65 63 57 58 51 43 35 27 17 10 10 9 22 20 31 34 43 49 49 50 60 68 83 69 74
46 44 43 39 38 37 35 30 27 25 20 16 21 22 28 37 46 52 56 59 56 50 51 44 32 25 17 6 8 5 20 26 32 38 46 51 53 57 62 65 65 56 77
51 51 49 48 44 43 40 35 31 28 26 18 18 18 21 29 38 46 52 51 52 50 47 48 44 40 39 32 19 14 18 24 34 42 46 51 52 54 55 54 53 53 64
56 56 54 55 55 50 47 40 35 33 31 23 18 18 16 22 32 39 43 45 48 49 47 48 49 48 45 41 33 27 25 25 31 41 49 55 54 53 53 54 59 69 82
56 57 62 60 62 58 54 47 41 39 35 30 23 17 12 13 20 25 31 35 39 39 42 48 51 51 52 47 42 36 31 34 38 40 44 47 49 50 56 62 69 76 73
49 55 59 60 65 67 63 56 49 44 41 39 30 22 14 10 8 14 19 25 30 33 37 40 43 46 46 44 43 38 35 29 30 34 37 41 42 45 52 61 67 68 68
48 51 54 56 62 68 66 65 57 53 46 45 39 31 22 17 9 6 7 13 18 26 30 32 33 35 37 40 40 41 41 39 33 32 33 35 41 47 53 60 63 63 63
42 47 53 58 60 62 68 67 64 62 54 49 46 40 32 27 21 14 8 1 6 14 21 25 27 27 29 32 34 35 35 35 33 33 35 36 39 40 47 53 58 60 60
50 47 53 61 66 64 68 70 70 70 64 57 53 49 41 37 31 24 18 11 5 4 9 14 19 23 25 25 26 28 28 28 30 32 35 37 41 42 45 50 52 54 51
56 53 55 65 71 68 68 72 71 75 71 65 58 52 49 45 37 32 26 20 15 11 9 9 10 14 18 22 23 23 23 26 28 29 30 33 36 40 43 46 49 46 44
54 54 56 64 70 72 73 71 71 75 74 70 63 56 52 51 45 41 35 29 23 19 16 13 11 11 13 15 18 19 21 23 24 24 27 31 33 36 40 42 42 40 37
55 58 60 64 68 69 72 70 71 72 74 73 67 60 53 53 51 49 42 36 31 25 22 19 17 14 13 14 16 17 17 17 19 21 24 28 30 31 32 32 33 34 33
54 56 57 61 65 66 71 71 67 64 67 75 72 65 54 54 53 50 46 42 37 33 29 26 23 20 17 15 13 12 15 17 18 19 19 19 24 30 32 34 33 33 33
52 54 58 59 64 68 68 68 62 65 68 78 77 69 59 58 54 52 50 46 41 35 32 30 28 25 23 20 18 17 16 15 18 19 19 21 20 21 22 23 23 25 24
56 51 56 58 62 67 70 68 68 69 68 74 78 69 66 61 56 54 52 50 46 39 34 31 30 30 29 27 25 22 20 19 19 19 23 24 26 27 27 28 28 29 29
Wind_Direction_500mb
268 277 277 287 297 305 310 319 323 327 329 335 339 343 341 340 339 334 329 316 310 305 305 297 289 288 285 275 274 266 266 259 254 262 247 248 244 250 251 250 257 258 252
267 270 271 282 295 303 312 319 324 328 332 339 343 345 342 340 339 338 331 329 315 307 304 299 292 288 281 279 268 269 265 260 245 261 259 247 244 257 262 260 256 262 273
261 256 266 281 293 300 309 316 323 326 333 342 344 345 344 342 339 341 338 333 322 313 306 301 295 289 287 276 267 260 261 262 247 248 258 252 249 264 263 278 268 257 259
246 252 264 279 290 298 306 314 320 323 332 344 348 346 346 342 344 344 345 332 321 317 314 306 297 287 283 281 269 261 259 257 248 249 248 222 259 273 266 273 274 268 264
241 248 262 276 285 292 301 309 313 325 334 347 347 346 346 347 348 350 345 328 331 335 335 328 313 289 276 270 266 256 253 247 234 234 233 244 254 274 271 267 241 251 260
238 248 258 269 280 286 295 305 307 327 337 348 346 345 349 352 353 357 341 338 343 350 349 347 332 299 287 268 249 245 257 254 235 249 217 233 252 264 278 245 211 182 140
239 247 255 264 272 277 286 293 300 326 339 346 347 349 351 356 360 2 355 350 359 2 357 0 358 343 315 269 244 227 249 244 252 253 234 246 257 264 269 201 176 163 132
241 246 250 258 264 269 276 280 289 323 335 346 350 350 351 0 4 6 4 3 7 9 12 18 14 10 355 90 164 212 231 244 336 204 243 254 247 252 244 197 171 140 126
241 247 251 258 263 264 271 276 285 316 332 346 349 351 353 3 8 10 7 12 11 19 29 29 27 29 31 30 153 177 217 255 187 5 286 227 238 241 229 187 150 142 118
241 246 248 254 261 264 267 272 278 305 329 339 349 351 356 5 10 12 12 14 17 16 26 38 38 39 35 32 67 179 220 232 240 296 260 204 209 186 182 178 164 153 143
242 244 245 248 255 261 265 269 275 283 312 332 339 353 2 7 12 16 15 16 19 21 19 26 38 31 41 60 72 36 172 198 216 158 142 150 162 169 172 166 159 146 150
246 250 251 252 254 258 261 265 268 273 294 317 326 353 5 11 12 18 21 20 25 24 23 22 18 11 15 19 64 112 145 152 152 146 147 148 155 158 161 164 162 158 152
251 252 254 251 252 253 257 260 263 264 274 296 314 342 4 13 17 17 25 24 33 32 35 31 31 28 25 13 112 116 173 173 172 159 154 156 160 163 165 165 169 167 158
251 252 253 255 252 252 254 256 256 256 262 275 296 323 360 11 20 22 24 27 35 43 44 45 40 51 59 64 80 114 141 157 153 149 145 141 147 152 158 165 163 153 153
251 254 252 254 253 252 251 252 251 249 251 261 274 302 346 8 16 22 22 25 35 44 54 63 64 62 66 76 80 92 108 131 139 140 142 143 145 149 148 154 156 157 154
256 254 254 253 254 252 250 248 247 246 244 251 260 273 311 355 10 22 22 28 34 43 52 61 67 71 74 75 80 87 101 119 132 142 145 147 149 154 155 155 157 158 154
263 260 257 254 252 250 249 246 244 241 239 241 249 253 266 293 341 4 26 24 36 40 49 61 67 71 77 82 88 90 97 105 124 137 145 148 151 153 156 157 157 153 145
266 262 259 260 254 250 247 248 245 241 239 239 242 245 244 255 263 299 3 29 29 43 51 58 67 77 82 85 91 97 103 109 116 124 134 142 148 152 154 156 158 154 148
268 264 258 260 260 251 246 245 242 244 239 238 237 238 237 238 242 238 244 277 34 47 54 62 72 75 83 90 94 99 104 108 111 118 128 137 146 151 155 157 157 154 148
273 269 261 258 260 252 245 242 240 240 238 236 237 238 238 234 235 236 234 226 202 109 79 71 75 86 92 92 96 103 109 113 120 126 129 133 140 147 151 154 155 153 151
272 269 263 260 258 254 248 243 239 239 239 239 239 239 240 238 233 230 233 232 218 197 169 133 107 96 93 99 107 107 109 116 123 127 130 136 142 149 152 153 153 154 153
270 269 264 261 259 254 248 244 240 240 239 240 240 238 237 234 232 228 225 225 224 214 201 180 162 142 124 111 106 108 117 123 125 127 132 136 141 148 151 154 156 157 157
265 264 261 260 258 255 250 246 241 237 238 238 238 236 235 234 231 228 223 220 219 218 213 203 191 179 166 152 142 134 131 130 133 139 147 152 154 158 159 162 164 164 164
263 262 260 258 257 253 249 247 242 238 241 242 236 234 232 233 231 226 223 220 216 212 210 210 207 203 193 182 170 160 155 155 155 154 156 164 167 169 173 175 175 175 176
260 260 257 254 253 252 248 247 241 239 241 241 233 230 230 229 226 223 220 219 215 210 206 205 206 208 208 206 200 190 184 182 177 178 179 178 185 189 192 191 192 189 191
259 257 256 254 252 250 249 248 242 244 242 239 231 223 229 226 222 219 219 216 213 207 204 203 203 204 208 212 213 212 212 210 209 203 196 196 197 199 201 204 205 206 207
Wind_Speed_850mb
50 46 38 36 36 37 38 39 41 41 40 41 46 53 59 67 77 85 90 86 82 87 85 88 88 87 85 86 82 82 98 75 85 87 50 52 68 66 59 48 41 35 55
50 43 36 35 33 33 33 35 37 37 35 38 46 53 64 76 85 90 90 82 83 88 94 90 92 87 84 79 81 76 79 85 68 58 92 54 56 53 55 70 63 53 46
47 37 34 31 31 30 29 30 32 31 30 36 46 60 71 80 87 95 91 94 92 92 95 91 84 77 76 70 71 70 74 70 65 55 67 60 40 45 43 42 45 55 54
40 36 30 28 28 28 26 27 28 25 29 37 50 62 71 78 86 94 96 95 96 90 80 76 75 68 68 61 57 59 61 62 56 61 51 25 19 31 42 48 38 47 52
38 33 27 27 26 26 24 25 23 22 31 39 52 62 68 75 85 92 89 95 81 80 82 85 78 60 56 49 42 43 49 52 41 51 37 39 41 33 29 34 30 33 36
35 30 27 26 24 24 23 23 19 21 29 40 50 59 67 73 83 90 82 78 71 71 80 80 60 41 39 30 36 41 37 28 32 32 34 25 23 33 36 35 36 38 31
33 30 27 25 24 22 22 20 16 20 28 39 47 58 65 71 80 89 81 66 64 64 69 74 58 28 15 17 21 29 34 32 12 17 20 24 27 32 29 38 44 50 62
33 32 29 26 24 22 22 20 15 18 26 37 45 53 62 69 76 85 80 61 61 56 58 61 59 38 18 6 13 19 28 13 6 16 17 26 33 30 31 50 56 80 80
33 32 29 27 25 24 23 21 18 17 24 33 40 47 57 66 74 79 77 70 58 56 49 51 49 46 28 12 5 17 16 9 12 6 16 19 23 32 40 61 83 99 86
30 30 30 28 27 26 24 23 20 19 20 29 33 41 52 61 68 74 76 72 60 53 50 43 43 38 39 22 7 7 6 5 10 14 7 12 17 37 53 62 87 94 106
31 35 34 30 28 28 27 25 22 20 17 22 28 33 44 56 62 67 73 68 65 54 48 46 40 27 20 19 9 3 5 12 10 13 28 37 46 52 54 72 82 90 86
38 39 36 33 32 32 31 27 24 22 18 17 24 26 35 46 56 60 65 63 57 58 51 43 35 27 17 10 10 9 22 20 31 34 43 49 49 50 60 68 83 69 74
46 44 43 39 38 37 35 30 27 25 20 16 21 22 28 37 46 52 56 59 56 50 51 44 32 25 17 6 8 5 20 26 32 38 46 51 53 57 62 65 65 56 77
51 51 49 48 44 43 40 35 31 28 26 18 18 18 21 29 38 46 52 51 52 50 47 48 44 40 39 32 19 14 18 24 34 42 46 51 52 54 55 54 53 53 64
56 56 54 55 55 50 47 40 35 33 31 23 18 18 16 22 32 39 43 45 48 49 47 48 49 48 45 41 33 27 25 25 31 41 49 55 54 53 53 54 59 69 82
56 57 62 60 62 58 54 47 41 39 35 30 23 17 12 13 20 25 31 35 39 39 42 48 51 51 52 47 42 36 31 34 38 40 44 47 49 50 56 62 69 76 73
49 55 59 60 65 67 63 56 49 44 41 39 30 22 14 10 8 14 19 25 30 33 37 40 43 46 46 44 43 38 35 29 30 34 37 41 42 45 52 61 67 68 68
48 51 54 56 62 68 66 65 57 53 46 45 39 31 22 17 9 6 7 13 18 26 30 32 33 35 37 40 40 41 41 39 33 32 33 35 41 47 53 60 63 63 63
42 47 53 58 60 62 68 67 64 62 54 49 46 40 32 27 21 14 8 1 6 14 21 25 27 27 29 32 34 35 35 35 33 33 35 36 39 40 47 53 58 60 60
50 47 53 61 66 64 68 70 70 70 64 57 53 49 41 37 31 24 18 11 5 4 9 14 19 23 25 25 26 28 28 28 30 32 35 37 41 42 45 50 52 54 51
56 53 55 65 71 68 68 72 71 75 71 65 58 52 49 45 37 32 26 20 15 11 9 9 10 14 18 22 23 23 23 26 28 29 30 33 36 40 43 46 49 46 44
54 54 56 64 70 72 73 71 71 75 74 70 63 56 52 51 45 41 35 29 23 19 16 13 11 11 13 15 18 19 21 23 24 24 27 31 33 36 40 42 42 40 37
55 58 60 64 68 69 72 70 71 72 74 73 67 60 53 53 51 49 42 36 31 25 22 19 17 14 13 14 16 17 17 17 19 21 24 28 30 31 32 32 33 34 33
54 56 57 61 65 66 71 71 67 64 67 75 72 65 54 54 53 50 46 42 37 33 29 26 23 20 17 15 13 12 15 17 18 19 19 19 24 30 32 34 33 33 33
52 54 58 59 64 68 68 68 62 65 68 78 77 69 59 58 54 52 50 46 41 35 32 30 28 25 23 20 18 17 16 15 18 19 19 21 20 21 22 23 23 25 24
56 51 56 58 62 67 70 68 68 69 68 74 78 69 66 61 56 54 52 50 46 39 34 31 30 30 29 27 25 22 20 19 19 19 23 24 26 27 27 28 28 29 29
Wind_Direction_850mb
268 277 277 287 297 305 310 319 323 327 329 335 339 343 341 340 339 334 329 316 310 305 305 297 289 288 285 275 274 266 266 259 254 262 247 248 244 250 251 250 257 258 252
267 270 271 282 295 303 312 319 324 328 332 339 343 345 342 340 339 338 331 329 315 307 304 299 292 288 281 279 268 269 265 260 245 261 259 247 244 257 262 260 256 262 273
261 256 266 281 293 300 309 316 323 326 333 342 344 345 344 342 339 341 338 333 322 313 306 301 295 289 287 276 267 260 261 262 247 248 258 252 249 264 263 278 268 257 259
246 252 264 279 290 298 306 314 320 323 332 344 348 346 346 342 344 344 345 332 321 317 314 306 297 287 283 281 269 261 259 257 248 249 248 222 259 273 266 273 274 268 264
241 248 262 276 285 292 301 309 313 325 334 347 347 346 346 347 348 350 345 328 331 335 335 328 313 289 276 270 266 256 253 247 234 234 233 244 254 274 271 267 241 251 260
238 248 258 269 280 286 295 305 307 327 337 348 346 345 349 352 353 357 341 338 343 350 349 347 332 299 287 268 249 245 257 254 235 249 217 233 252 264 278 245 211 182 140
239 247 255 264 272 277 286 293 300 326 339 346 347 349 351 356 360 2 355 350 359 2 357 0 358 343 315 269 244 227 249 244 252 253 234 246 257 264 269 201 176 163 132
241 246 250 258 264 269 276 280 289 323 335 346 350 350 351 0 4 6 4 3 7 9 12 18 14 10 355 90 164 212 231 244 336 204 243 254 247 252 244 197 171 140 126
241 247 251 258 263 264 271 276 285 316 332 346 349 351 353 3 8 10 7 12 11 19 29 29 27 29 31 30 153 177 217 255 187 5 286 227 238 241 229 187 150 142 118
241 246 248 254 261 264 267 272 278 305 329 339 349 351 356 5 10 12 12 14 17 16 26 38 38 39 35 32 67 179 220 232 240 296 260 204 209 186 182 178 164 153 143
242 244 245 248 255 261 265 269 275 283 312 332 339 353 2 7 12 16 15 16 19 21 19 26 38 31 41 60 72 36 172 198 216 158 142 150 162 169 172 166 159 146 150
246 250 251 252 254 258 261 265 268 273 294 317 326 353 5 11 12 18 21 20 25 24 23 22 18 11 15 19 64 112 145 152 152 146 147 148 155 158 161 164 162 158 152
251 252 254 251 252 253 257 260 263 264 274 296 314 342 4 13 17 17 25 24 33 32 35 31 31 28 25 13 112 116 173 173 172 159 154 156 160 163 165 165 169 167 158
251 252 253 255 252 252 254 256 256 256 262 275 296 323 360 11 20 22 24 27 35 43 44 45 40 51 59 64 80 114 141 157 153 149 145 141 147 152 158 165 163 153 153
251 254 252 254 253 252 251 252 251 249 251 261 274 302 346 8 16 22 22 25 35 44 54 63 64 62 66 76 80 92 108 131 139 140 142 143 145 149 148 154 156 157 154
256 254 254 253 254 252 250 248 247 246 244 251 260 273 311 355 10 22 22 28 34 43 52 61 67 71 74 75 80 87 101 119 132 142 145 147 149 154 155 155 157 158 154
263 260 257 254 252 250 249 246 244 241 239 241 249 253 266 293 341 4 26 24 36 40 49 61 67 71 77 82 88 90 97 105 124 137 145 148 151 153 156 157 157 153 145
266 262 259 260 254 250 247 248 245 241 239 239 242 245 244 255 263 299 3 29 29 43 51 58 67 77 82 85 91 97 103 109 116 124 134 142 148 152 154 156 158 154 148
268 264 258 260 260 251 246 245 242 244 239 238 237 238 237 238 242 238 244 277 34 47 54 62 72 75 83 90 94 99 104 108 111 118 128 137 146 151 155 157 157 154 148
273 269 261 258 260 252 245 242 240 240 238 236 237 238 238 234 235 236 234 226 202 109 79 71 75 86 92 92 96 103 109 113 120 126 129 133 140 147 151 154 155 153 151
272 269 263 260 258 254 248 243 239 239 239 239 239 239 240 238 233 230 233 232 218 197 169 133 107 96 93 99 107 107 109 116 123 127 130 136 142 149 152 153 153 154 153
270 269 264 261 259 254 248 244 240 240 239 240 240 238 237 234 232 228 225 225 224 214 201 180 162 142 124 111 106 108 117 123 125 127 132 136 141 148 151 154 156 157 157
265 264 261 260 258 255 250 246 241 237 238 238 238 236 235 234 231 228 223 220 219 218 213 203 191 179 166 152 142 134 131 130 133 139 147 152 154 158 159 162 164 164 164
263 262 260 258 257 253 249 247 242 238 241 242 236 234 232 233 231 226 223 220 216 212 210 210 207 203 193 182 170 160 155 155 155 154 156 164 167 169 173 175 175 175 176
260 260 257 254 253 252 248 247 241 239 241 241 233 230 230 229 226 223 220 219 215 210 206 205 206 208 208 206 200 190 184 182 177 178 179 178 185 189 192 191 192 189 191
259 257 256 254 252 250 249 248 242 244 242 239 231 223 229 226 222 219 219 216 213 207 204 203 203 204 208 212 213 212 212 210 209 203 196 196 197 199 201 204 205 206 207